Date String (YYYY-MM-DD hh:mm:ss) UTC,Instrument flags,Ambient pressure (hPa),Sample flow (lpm),Bypass flow (lpm),Sample temperature (°C),Ambient temperature (°C),ASC tube jacket temperature (°C),LED temperature (°C),Box temperature (°C),Sample RH (%),Span deviation,Mass concentration (μg/m³),Mass concentration (μg/m³),Mass concentration (μg/m³)
DateTimeUTC,F1_M11,P_M11,Q1_M11,Q2_M11,T1_M11,T2_M11,T3_M11,T4_M11,T5_M11,U1_M11,ZSPAN_M11,X0_M11,X2_M11,X1_M11
2021-09-11 00:00:00,,0827.7,4.99,0.00,28.7,25.5,00.0,37.8,30.2,11.6,0000.5,0031.20,0015.40,0013.59
2021-09-11 00:01:00,,0827.7,5.01,0.00,28.7,26.0,00.0,37.8,30.3,11.5,0000.5,0030.99,0015.44,0013.63
2021-09-11 00:02:00,,0827.8,4.99,0.00,28.7,26.4,00.0,37.7,30.4,11.7,0000.7,0031.16,0015.50,0013.67
2021-09-11 00:03:00,,0827.7,5.01,0.00,28.7,26.8,00.0,37.7,30.5,11.6,0000.7,0030.24,0015.61,0013.70
2021-09-11 00:04:00,,0827.7,5.00,0.00,28.8,27.2,00.0,37.7,30.6,12.0,0000.7,0029.36,0015.67,0013.74
2021-09-11 00:05:00,,0827.7,4.99,0.00,28.9,27.6,00.0,37.8,30.8,12.0,0001.1,0028.81,0015.67,0013.74
2021-09-11 00:06:00,,0827.7,5.00,0.00,28.9,27.6,00.0,37.8,30.8,12.1,0001.6,0028.90,0015.73,0013.73
2021-09-11 00:07:00,,0827.7,5.00,0.00,28.9,26.2,00.0,37.8,30.4,12.1,0002.1,0028.71,0015.77,0013.74
2021-09-11 00:08:00,,0827.7,5.00,0.00,28.7,25.5,00.0,37.8,30.2,11.8,0001.6,0028.85,0015.81,0013.76
2021-09-11 00:09:00,,0827.7,5.00,0.00,28.7,26.0,00.0,37.8,30.3,11.7,0001.3,0028.62,0015.80,0013.76
2021-09-11 00:10:00,,0827.7,4.99,0.00,28.7,26.4,00.0,37.7,30.3,11.8,0001.3,0027.60,0015.66,0013.71
2021-09-11 00:11:00,,0827.7,5.02,0.00,28.7,26.9,00.0,37.8,30.5,11.8,0001.2,0028.24,0015.63,0013.66
2021-09-11 00:12:00,,0827.7,4.99,0.00,28.8,27.3,00.0,37.8,30.6,11.9,0001.1,0029.28,0015.62,0013.64
2021-09-11 00:13:00,,0827.8,5.00,0.00,28.9,27.6,00.0,37.8,30.8,12.1,0000.9,0028.85,0015.60,0013.62
2021-09-11 00:14:00,,0827.7,5.01,0.00,28.9,27.5,00.0,37.8,30.8,12.0,0000.8,0028.55,0015.57,0013.64
2021-09-11 00:15:00,,0827.7,5.00,0.00,28.8,26.0,00.0,37.8,30.3,12.2,0001.0,0028.59,0015.56,0013.65
2021-09-11 00:16:00,,0827.7,5.00,0.00,28.7,25.4,00.0,37.8,30.1,12.3,0001.1,0029.98,0015.66,0013.67
2021-09-11 00:17:00,,0827.7,4.99,0.00,28.7,25.9,00.0,37.8,30.2,12.6,0001.0,0030.37,0015.68,0013.68
2021-09-11 00:18:00,,0827.7,5.00,0.00,28.7,26.3,00.0,37.7,30.3,12.7,0001.1,0030.36,0015.64,0013.67
2021-09-11 00:19:00,,0827.7,5.01,0.00,28.7,26.8,00.0,37.7,30.5,12.7,0001.2,0031.56,0015.67,0013.67
2021-09-11 00:20:00,,0827.7,4.99,0.00,28.8,27.1,00.0,37.7,30.6,12.8,0001.1,0033.86,0015.66,0013.66
2021-09-11 00:21:00,,0827.7,5.01,0.00,28.8,27.6,00.0,37.8,30.7,12.6,0001.1,0035.47,0015.66,0013.65
2021-09-11 00:22:00,,0827.7,5.01,0.00,28.9,27.5,00.0,37.8,30.7,12.5,0001.2,0035.17,0015.68,0013.66
2021-09-11 00:23:00,,0827.7,4.99,0.00,28.8,26.1,00.0,37.8,30.3,12.6,0001.5,0034.06,0015.68,0013.68
2021-09-11 00:24:00,,0827.7,5.00,0.00,28.7,25.4,00.0,37.7,30.1,12.5,0001.2,0035.99,0015.70,0013.68
2021-09-11 00:25:00,,0827.7,4.99,0.00,28.7,25.9,00.0,37.7,30.2,12.9,0001.1,0036.38,0015.72,0013.68
2021-09-11 00:26:00,,0827.7,5.00,0.00,28.6,26.3,00.0,37.7,30.3,13.0,0001.1,0036.82,0015.72,0013.67
2021-09-11 00:27:00,,0827.7,5.00,0.00,28.7,26.8,00.0,37.7,30.5,13.1,0001.1,0036.17,0015.67,0013.66
2021-09-11 00:28:00,,0827.7,4.99,0.00,28.7,27.2,00.0,37.7,30.6,12.9,0001.2,0034.94,0015.61,0013.67
2021-09-11 00:29:00,,0827.7,5.00,0.00,28.8,27.5,00.0,37.7,30.7,12.9,0001.2,0036.02,0015.68,0013.70
2021-09-11 00:30:00,,0827.7,4.99,0.00,28.9,27.5,00.0,37.8,30.7,13.1,0001.3,0036.30,0015.68,0013.70
2021-09-11 00:31:00,,0827.7,5.00,0.00,28.8,26.1,00.0,37.8,30.3,13.2,0001.3,0034.85,0015.68,0013.70
2021-09-11 00:32:00,,0827.7,5.00,0.00,28.7,25.4,00.0,37.7,30.1,13.1,0001.2,0033.35,0015.72,0013.71
2021-09-11 00:33:00,,0827.7,5.00,0.00,28.6,25.8,00.0,37.7,30.2,12.8,0001.3,0033.81,0015.74,0013.73
2021-09-11 00:34:00,,0827.8,5.00,0.00,28.6,26.2,00.0,37.7,30.3,12.7,0001.1,0033.38,0015.71,0013.72
2021-09-11 00:35:00,,0827.7,5.00,0.00,28.6,26.7,00.0,37.7,30.4,12.7,0001.0,0031.68,0015.67,0013.72
2021-09-11 00:36:00,,0827.7,5.00,0.00,28.7,27.2,00.0,37.7,30.6,12.7,0001.1,0031.02,0015.60,0013.71
2021-09-11 00:37:00,,0827.7,5.01,0.00,28.8,27.5,00.0,37.7,30.7,12.7,0001.0,0032.55,0015.58,0013.69
2021-09-11 00:38:00,,0827.7,5.00,0.00,28.9,27.9,00.0,37.7,30.8,12.6,0000.8,0032.67,0015.56,0013.65
2021-09-11 00:39:00,,0827.7,5.01,0.00,28.9,27.8,00.0,37.8,30.8,12.7,0001.0,0033.26,0015.58,0013.65
2021-09-11 00:40:00,,0827.7,5.01,0.00,28.9,26.3,00.0,37.8,30.4,12.6,0000.3,0032.63,0015.56,0013.64
2021-09-11 00:41:00,,0827.7,5.00,0.00,28.7,25.5,00.0,37.7,30.1,12.9,0000.2,0032.37,0015.48,0013.61
2021-09-11 00:42:00,,0827.7,5.00,0.00,28.7,25.9,00.0,37.7,30.2,13.0,0000.1,0032.15,0015.46,0013.60
2021-09-11 00:43:00,,0827.7,4.99,0.00,28.7,26.3,00.0,37.7,30.3,13.3,0000.1,0032.80,0015.48,0013.63
2021-09-11 00:44:00,,0827.7,5.01,0.00,28.7,26.7,00.0,37.7,30.4,13.3,0000.0,0033.44,0015.48,0013.62
2021-09-11 00:45:00,,0827.7,5.00,0.00,28.7,27.1,00.0,37.7,30.6,13.2,0000.4,0035.01,0015.51,0013.60
2021-09-11 00:46:00,,0827.7,4.99,0.00,28.8,27.5,00.0,37.7,30.7,13.4,0000.1,0034.97,0015.50,0013.59
2021-09-11 00:47:00,,0827.7,5.01,0.00,28.9,27.8,00.0,37.8,30.8,13.8,0000.1,0035.66,0015.51,0013.55
2021-09-11 00:48:00,,0827.7,5.00,0.00,29.0,27.9,00.0,37.8,30.9,13.8,0000.4,0033.94,0015.53,0013.53
2021-09-11 00:49:00,,0827.7,5.00,0.00,28.9,26.3,00.0,37.8,30.5,13.3,0000.5,0033.07,0015.51,0013.54
2021-09-11 00:50:00,,0827.7,5.01,0.00,28.7,25.3,00.0,37.8,30.1,13.9,0001.0,0032.38,0015.46,0013.50
2021-09-11 00:51:00,,0827.7,5.00,0.00,28.7,25.7,00.0,37.8,30.2,14.3,0001.2,0032.22,0015.44,0013.49
2021-09-11 00:52:00,,0827.7,5.00,0.00,28.7,26.1,00.0,37.8,30.3,13.8,0000.9,0031.60,0015.43,0013.47
2021-09-11 00:53:00,,0827.7,4.99,0.00,28.7,26.6,00.0,37.7,30.4,13.8,0000.8,0031.69,0015.36,0013.42
2021-09-11 00:54:00,,0827.7,5.00,0.00,28.7,27.0,00.0,37.8,30.6,13.1,0000.9,0031.52,0015.33,0013.40
2021-09-11 00:55:00,,0827.8,5.01,0.00,28.8,27.4,00.0,37.8,30.7,12.6,0000.6,0030.97,0015.29,0013.39
2021-09-11 00:56:00,,0827.7,4.99,0.00,28.9,27.8,00.0,37.8,30.8,12.7,0000.8,0030.64,0015.27,0013.41
2021-09-11 00:57:00,,0827.7,4.98,0.00,29.0,28.1,00.0,37.8,30.9,12.3,0001.7,0032.10,0015.36,0013.46
2021-09-11 00:58:00,,0827.7,5.00,0.00,29.0,27.5,00.0,37.8,30.8,12.3,0001.7,0031.87,0015.45,0013.55
2021-09-11 00:59:00,,0827.7,5.00,0.00,28.9,25.7,00.0,37.8,30.2,12.6,0001.4,0031.88,0015.42,0013.60
